Location: doobydoo
(53.3403°N, 2.6908°W)
Time: 01:12:01
(UTC+00:00)

ISS - Pass Details

Date: 07 December 2021
Orbit: 414 x 422 km, 51.6° (Epoch: 16 January)

Event Time Altitude Azimuth Distance (km) Brightness Sun altitude
Rises 17:28:58 0° 279° (W) 2,393 1.2 -13.3°
Reaches altitude 10° 17:31:30 10° 260° (W) 1,522 0.5 -13.6°
Maximum altitude 17:33:57 19° 214° (SW) 1,097 -0.9 -14.0°
Drops below altitude 10° 17:36:24 10° 168° (SSE) 1,510 -0.9 -14.3°
Enters shadow 17:40:02 -4° 145° (SE) 2,797 0.3 -14.8°
